Location: Ajisawe
(8.4333°N, 4.3833°E)
Time: 23:37:52
(UTC+00:00)

Vanguard 1 Rocket - Pass Details

Date: 19 April 2021
Orbit: 652 x 4224 km, 34.3° (Epoch: 10 May)

Event Time Altitude Azimuth Distance (km) Brightness Sun altitude
Exits shadow 03:31:11 - 208° (SSW) 7,701 11.7 -29.6°
Reaches altitude 10° 03:38:28 10° 192° (SSW) 7,427 11.7 -27.9°
Maximum altitude 03:44:59 11° 177° (S) 7,265 11.8 -26.4°
Drops below altitude 10° 03:51:18 10° 163° (SSE) 7,198 11.9 -24.9°
Sets 04:04:30 0° 132° (SE) 7,449 12.5 -21.7°
